SVA1093 OERK-OEJN

Flight info

Callsign SVA1093
Flight time N/A
Altitude 38000
Route DURMA G782 VEMEM
Aircraft B77W/H-SDE1E2E3FGHIJ2J3J4J5M1RWXY/LB1D1

Departure

Time N/A
Airport King Khalid International Airport (OERK)

Arrival

Time 2026-04-28 23:11
Airport King Abdulaziz International Airport (OEJN)
Time Latitude Longitude Altitude Speed Heading
2026-04-28 22:55 21.83112 39.24560 11470 ft 283 kts 244°
2026-04-28 22:55 21.82263 39.22657 11473 ft 281 kts 244°
2026-04-28 22:55 21.81275 39.20856 11448 ft 278 kts 233°
2026-04-28 22:56 21.80041 39.19273 11100 ft 274 kts 229°
2026-04-28 22:56 21.78767 39.17770 10489 ft 270 kts 228°
2026-04-28 22:56 21.77427 39.16377 9819 ft 267 kts 214°
2026-04-28 22:56 21.75722 39.15693 9092 ft 269 kts 186°
2026-04-28 22:57 21.73900 39.15985 8547 ft 266 kts 158°
2026-04-28 22:57 21.72432 39.17124 8132 ft 258 kts 138°
2026-04-28 22:57 21.71233 39.18523 7696 ft 250 kts 134°
2026-04-28 22:57 21.70115 39.19918 7221 ft 243 kts 134°
2026-04-28 22:58 21.69030 39.21283 7027 ft 239 kts 134°
2026-04-28 22:58 21.67941 39.22645 6986 ft 242 kts 133°
2026-04-28 22:58 21.66831 39.24022 6954 ft 244 kts 133°
2026-04-28 22:58 21.65718 39.25402 6701 ft 244 kts 133°
2026-04-28 22:59 21.64608 39.26775 6430 ft 241 kts 133°
2026-04-28 22:59 21.63507 39.28129 6119 ft 239 kts 133°
2026-04-28 22:59 21.62418 39.29467 5818 ft 236 kts 133°
2026-04-28 22:59 21.61347 39.30773 5628 ft 228 kts 133°
2026-04-28 23:00 21.60308 39.32009 5439 ft 218 kts 138°
2026-04-28 23:00 21.59032 39.32823 5026 ft 214 kts 162°
2026-04-28 23:00 21.57623 39.33330 4685 ft 214 kts 163°
2026-04-28 23:00 21.56209 39.33842 4478 ft 216 kts 163°
2026-04-28 23:01 21.54773 39.34365 4495 ft 220 kts 163°
2026-04-28 23:01 21.53332 39.34893 4470 ft 217 kts 163°
2026-04-28 23:01 21.51916 39.35412 4468 ft 213 kts 163°
2026-04-28 23:01 21.50519 39.35914 4470 ft 211 kts 163°
2026-04-28 23:02 21.49130 39.36412 4477 ft 210 kts 163°
2026-04-28 23:02 21.47739 39.36908 4480 ft 210 kts 163°
2026-04-28 23:02 21.46352 39.37403 4495 ft 209 kts 163°
2026-04-28 23:02 21.44978 39.37892 4500 ft 208 kts 164°
2026-04-28 23:03 21.43575 39.38047 4486 ft 205 kts 196°
2026-04-28 23:03 21.42380 39.37308 4490 ft 205 kts 231°
2026-04-28 23:03 21.41720 39.35958 4506 ft 203 kts 251°
2026-04-28 23:03 21.41272 39.34531 4497 ft 204 kts 253°
2026-04-28 23:04 21.40830 39.33098 4483 ft 200 kts 253°
2026-04-28 23:04 21.40723 39.30283 4480 ft 199 kts 301°
2026-04-28 23:04 21.41613 39.29126 4489 ft 203 kts 312°
2026-04-28 23:05 21.42596 39.28059 4470 ft 198 kts 314°
2026-04-28 23:05 21.43716 39.27235 4474 ft 196 kts 331°
2026-04-28 23:05 21.44984 39.26636 4378 ft 205 kts 335°
2026-04-28 23:05 21.46320 39.26082 4112 ft 205 kts 336°
2026-04-28 23:06 21.47641 39.25556 3855 ft 200 kts 338°
2026-04-28 23:06 21.48927 39.25051 3604 ft 193 kts 338°
2026-04-28 23:06 21.50164 39.24564 3353 ft 185 kts 338°
2026-04-28 23:06 21.51339 39.24100 3158 ft 176 kts 338°
2026-04-28 23:07 21.52502 39.23640 2915 ft 178 kts 338°
2026-04-28 23:07 21.53657 39.23183 2684 ft 175 kts 339°
2026-04-28 23:07 21.54785 39.22739 2442 ft 170 kts 340°
2026-04-28 23:07 21.55894 39.22301 2248 ft 170 kts 340°
2026-04-28 23:08 21.56981 39.21871 2003 ft 162 kts 340°
2026-04-28 23:08 21.57995 39.21470 1815 ft 152 kts 340°
2026-04-28 23:08 21.58980 39.21080 1629 ft 147 kts 341°
2026-04-28 23:08 21.59899 39.20718 1409 ft 135 kts 340°
2026-04-28 23:09 21.60768 39.20374 1242 ft 131 kts 340°
2026-04-28 23:09 21.61623 39.20036 1093 ft 132 kts 340°
2026-04-28 23:09 21.62493 39.19687 968 ft 135 kts 339°
2026-04-28 23:09 21.63377 39.19300 733 ft 141 kts 339°
2026-04-28 23:10 21.64290 39.18972 451 ft 129 kts 343°
2026-04-28 23:10 21.65149 39.18632 369 ft 136 kts 340°
2026-04-28 23:10 21.66054 39.18282 204 ft 140 kts 342°
2026-04-28 23:10 21.66958 39.17932 49 ft 134 kts 340°
2026-04-28 23:11 21.67720 39.17633 38 ft 92 kts 340°
2026-04-28 23:11 21.68147 39.17460 33 ft 41 kts 339°
2026-04-28 23:11 21.68288 39.17368 32 ft 21 kts 315°
2026-04-28 23:11 21.68354 39.17288 30 ft 10 kts 310°
2026-04-28 23:12 21.68399 39.17231 30 ft 10 kts 309°
2026-04-28 23:12 21.68427 39.17164 31 ft 10 kts 275°
2026-04-28 23:12 21.68429 39.17091 33 ft 10 kts 305°
2026-04-28 23:12 21.68484 39.17046 32 ft 10 kts 290°
2026-04-28 23:13 21.68435 39.17013 34 ft 10 kts 169°
2026-04-28 23:13 21.68366 39.17037 34 ft 10 kts 160°
2026-04-28 23:13 21.68298 39.17064 34 ft 10 kts 160°
2026-04-28 23:13 21.68229 39.17091 34 ft 11 kts 160°
2026-04-28 23:14 21.68161 39.17119 34 ft 11 kts 159°
2026-04-28 23:14 21.68092 39.17147 35 ft 11 kts 159°
2026-04-28 23:14 21.68022 39.17175 35 ft 11 kts 159°
2026-04-28 23:14 21.67952 39.17204 35 ft 11 kts 159°
2026-04-28 23:15 21.67881 39.17231 35 ft 11 kts 160°
2026-04-28 23:15 21.67810 39.17259 35 ft 11 kts 160°
2026-04-28 23:15 21.67739 39.17284 35 ft 11 kts 162°
2026-04-28 23:15 21.67668 39.17309 35 ft 11 kts 161°
2026-04-28 23:16 21.67144 39.17860 170 ft 2 kts 345°
2026-04-28 23:16 21.67166 39.17829 36 ft 7 kts 307°
2026-04-28 23:16 21.67194 39.17789 36 ft 7 kts 307°
2026-04-28 23:16 21.67223 39.17273 35 ft 0 kts 310°
2026-04-28 23:17 21.67210 39.17289 34 ft 0 kts 310°
2026-04-28 23:18 21.67224 39.17270 339 ft 0 kts 181°
2026-04-28 23:18 21.67236 39.17272 33 ft 0 kts 185°
2026-04-28 23:19 21.67223 39.17273 38 ft 0 kts 310°
2026-04-28 23:19 21.67222 39.17273 38 ft 0 kts 310°
2026-04-28 23:20 21.67222 39.17272 38 ft 0 kts 309°
2026-04-28 23:21 21.67227 39.17270 314 ft 0 kts 116°